Regional Weather Roundup
Issued by NWS

Home | Current Version | Previous Version | Graphics & Text | Print | Product List | Glossary On
Versions: 1 2 3 4 5 6 7 8 9 10 11 12 13 14 15 16 17 18 19 20 21 22 23 24 25 26 27 28 29 30 31 32 33 34 35 36 37 38 39 40 41 42 43 44 45 46 47 48 49 50
000
ASUS45 KTFX 290519
RWRMT
MONTANA HOURLY WEATHER ROUNDUP
NATIONAL WEATHER SERVICE GREAT FALLS MT
1019 PM MST WED JAN 28 2015

NOTE: "FAIR" INDICATES FEW OR NO CLOUDS BELOW 12000 FEET WITH NO
SIGNIFICANT WEATHER AND/OR OBSTRUCTIONS TO VISIBILITY.

* THESE STATIONS ARE NOT UNDER NWS QUALITY CONTROL. THEY DO NOT
   REPORT WEATHER SUCH AS PRECIPITATION OR FOG.

MTZ001>007-043-290600-
WEST OF THE DIVIDE
CITY           SKY/WX    TMP DP  RH WIND       PRES   REMARKS
KALISPELL      FOG       21  19  92 CALM      30.40R VSB M1/4
MISSOULA       CLEAR     30  25  82 CALM      30.42R
BUTTE          CLEAR     27  21  78 S3        30.39R
MULLAN PASS    CLEAR     27  25  92 S5        30.34S WCI  21
* ANACONDA     CLEAR     27  21  78 SW5        N/A   WCI  21
* ESSEX        N/A       24  23  96 N/A        N/A
* EUREKA APT   CLEAR     28  25  89 CALM      30.42R
* HAMILTON APT CLEAR     32  23  69 S6        30.41R WCI  26
* LIBBY APT    CLEAR     21  19  92 CALM      30.45R VSB 1
* LINCOLN      N/A       25  21  85 NE1        N/A
* LOOKOUT PASS N/A       28  26  92 N/A        N/A
* POLSON       N/A       31  25  78 SE1        N/A
* RONAN APT    CLEAR     30  30 100 N/A        N/A
* SEELEY LAKE  N/A       22  18  85 N1         N/A
* THOMP F APT  CLEAR     30  29  96 SW2        N/A
* YAAK HILL    N/A       32  30  92 N/A        N/A
$$

MTZ008-052>055-290600-
SOUTHWEST MONTANA
CITY           SKY/WX    TMP DP  RH WIND       PRES   REMARKS
BOZEMAN        PTCLDY    30  23  75 CALM      30.39R
DILLON         PTCLDY    30  21  69 W3        30.37R
* W YELLOWSTON PTCLDY    31  29  92 SW2        N/A
* THREE FORKS  CLEAR     28  28 100 N/A        N/A
* BOULDER HILL N/A       29  15  56 SW3        N/A
* MONIDA PASS  N/A       27  27 100 SE9        N/A   WCI  18
* RAYNOLDS PAS N/A       29  11  47 S7G12      N/A   WCI  22
* WHITEHALL    N/A       32  20  61 E5         N/A   WCI  27
* WISE RIVER   N/A       27  20  75 SW2        N/A
$$

MTZ009>010-012-014-046-048-049-054-290600-
EAST SLOPES AND CENTRAL MONTANA
CITY           SKY/WX    TMP DP  RH WIND       PRES   REMARKS
CUT BANK       CLEAR     27  27 100 SE5       30.34S WCI  21
GREAT FALLS    CLEAR     30  28  92 E7        30.37R WCI  23
HELENA         CLEAR     34  21  59 SW5       30.38R WCI  29
MALMSTROM AFB  FOG       30  30 100 SE3       30.38S
* CONRAD       CLEAR     25  23  92 N5         N/A   WCI  19
* DEARBORN     N/A       34  28  79 S3         N/A
* EAST GLACIER N/A       31  22  69 W9         N/A   WCI  23
* MONARCH      N/A       29  22  75 SE1        N/A
* PENDROY      N/A       27  27 100 S1         N/A
* ROGERS PASS  N/A       28  20  72 W2         N/A
* SWEET GRASS  N/A       32  31  96 S12        N/A   WCI  23
* WHITE SULPH  N/A       30  26  85 E1         N/A
$$

MTZ011-013-016-021-035-040-045-047-050-051-290600-
NORTH CENTRAL MONTANA
CITY           SKY/WX    TMP DP  RH WIND       PRES   REMARKS
HAVRE          CLEAR     27  25  92 SW5       30.39S WCI  21
LEWISTOWN      PTCLDY    28  25  89 SE3       30.38R
* N BAR RANCH  FAIR      27  23  85 VRB6      30.38R WCI  20
* CHINOOK      CLEAR     27  25  92 CALM      30.40S VSB 3
* CHESTER      N/A       26  24  92 N/A        N/A
* DENTON       N/A       27  27 100 NW2        N/A
* GEYSER       N/A       24  23  96 S6         N/A   WCI  17
* JUDITH GAP   N/A       28  28 100 SW4        N/A
* LOMA         N/A       28  28 100 SW2        N/A
$$

MTZ017>020-022>027-061-062-290600-
NORTHEAST MONTANA
CITY           SKY/WX    TMP DP  RH WIND       PRES   REMARKS
GLASGOW        CLEAR     30  27  89 NW12      30.36R WCI  20
GLENDIVE       CLOUDY    34  27  76 NW12      30.35R WCI  25
JORDAN         CLEAR     27  25  92 W7        30.38R WCI  19
SIDNEY         CLOUDY    34  27  76 NW16G21   30.35R WCI  24
WOLF POINT     FAIR      30  25  82 W7        30.37R WCI  23
* BEAVER HILL  N/A       33  25  72 NW16G24    N/A   WCI  23
* CIRCLE       N/A       30  27  89 W7         N/A   WCI  23
* LINDSAY DVD  N/A       31  27  85 W18G24     N/A   WCI  19
* NAVAJO       N/A       28  23  81 NW16       N/A   WCI  16
* PLENTYWOOD A CLEAR     28  25  89 NW16G23   30.31R WCI  16
* POPLAR APT   CLEAR     32  25  75 N/A       30.36R
* SACO         N/A       26  25  96 N/A        N/A
$$

MTZ028>042-056>058-290600-
SOUTHCENTRAL AND SOUTHEAST MONTANA
CITY           SKY/WX    TMP DP  RH WIND       PRES   REMARKS
BAKER          CLOUDY    32  28  85 W16       30.31R WCI  21
BILLINGS       MOCLDY    39  27  62 CALM      30.40R
LIVINGSTON     CLOUDY    36  27  70 E6        30.38R WCI  31
MILES CITY     CLEAR     28  27  96 NW6       30.37R WCI  21
* BIG TIMBER A MOCLDY    36  28  73 CALM      30.40R
* FORSYTH APT  CLEAR     34  27  76 SW5       30.40R WCI  29
* LAUREL APT   MOCLDY    37  21  52 N/A        N/A
* ROUNDUP APT  PTCLDY    32  23  69 N/A        N/A
* ALZADA       N/A       31  27  85 NW11       N/A   WCI  22
* HYSHAM       N/A       32  28  85 W4         N/A
* LAME DEER    N/A       29  22  75 NW4        N/A
* REED POINT   N/A       37  26  64 N/A        N/A
* ROSCOE HILL  N/A       32  25  75 SE8        N/A   WCI  25
$$

REGIONAL REPORTS...DAKOTAS
CITY           SKY/WX    TMP DP  RH WIND       PRES   REMARKS
WILLISTON      CLOUDY    32  27  82 N15G24    30.30R WCI  22
DICKINSON      CLOUDY    32  27  82 NW13      30.24R WCI  22
BEACH          CLOUDY    32  30  92 NW13      30.30R WCI  22
CROSBY         CLOUDY    27  27 100 N21       30.30R WCI  13
TIOGA          CLOUDY    27  27 100 NW23G32   30.30R WCI  13
WATFORD CITY   CLOUDY    32  28  85 NW13      30.26R WCI  22
BISMARCK       CLOUDY    34  28  79 NW15G23   30.21R WCI  24
GRAND FORKS    CLOUDY    25  21  85 N18       30.07R WCI  11
FARGO          CLOUDY    30  27  89 NW18G29   30.04R WCI  18
BUFFALO SD     PTCLDY    32  27  82 NW17      30.23R WCI  21
RAPID CITY     MOCLDY    32  27  82 N21       30.28R WCI  20
$$

REGIONAL REPORTS...WYOMING/IDAHO/WASHINGTON
CITY           SKY/WX    TMP DP  RH WIND       PRES   REMARKS
GILLETTE       PTCLDY    32  27  82 NW14      30.35R WCI  22
SHERIDAN       CLOUDY    36  28  73 N7        30.37R WCI  30
CODY           CLOUDY    36  28  73 N5        30.38R WCI  32
YELLOWSTONE LA PTCLDY    18  16  92 CALM      30.39R
SALMON         PTCLDY    21  19  92 CALM      30.42R
MULLAN PASS    CLEAR     27  25  92 S5        30.34S WCI  21
SAND POINT     FOG       34  34 100 NE5       30.45R VSB M1/4 WCI  29
SPOKANE        FOG       30  30 100 N6        30.41S WCI  24
$$

REGIONAL REPORTS...ALBERTA
CITY           SKY/WX    TMP DP  RH WIND       PRES   REMARKS
CALGARY        MOCLDY    28  23  81 SE6       30.29F WCI  21
LETHBRIDGE     N/A       25  25 100 S5        30.32S WCI  19
MEDICINE HAT   FOG       25  25 100 SW2       30.37S VSB 2 1/2
EDMONTON       LGT SNOW  23  21  92 SE7       30.36S VSB 1 1/2 WCI  15
WATERTON GATE  N/A       37  23  57 SW15G22    N/A   WCI  28
CARDSTON       N/A       30  25  82 SW9        N/A   WCI  22
MILK RIVER     N/A       28  27  96 S8         N/A   WCI  20
$$

REGIONAL REPORTS...SASKATCHEWAN
CITY           SKY/WX    TMP DP  RH WIND       PRES   REMARKS
SWIFT CURRENT  CLOUDY    21  19  92 NW13      30.34R WCI   8
REGINA         CLOUDY    23  21  92 NW20      30.32R WCI   8
VAL MARIE      N/A       27  25  92 NW7        N/A   WCI  19
ASSINIBOIA     N/A       21  19  92 N13        N/A   WCI   8
CORONACH       N/A       27  23  85 NW22G28    N/A   WCI  13

$$



USA.gov is the U.S. government's official web portal to all federal, state and local government web resources and services.